| time (UTC) | temp C | wind direction | speed KPH | gust KPH | rain 1hr cm | rain 24hr cm | rain mn cm | humidity % | barometer mb |
| 20260905001750 | 33 | 178 | 1.6 | 3.2 | 0.00 | 0.00 | 0.00 | 61 | 1011.3 |
| 20260905001250 | 33 | 137 | 1.6 | 4.8 | 0.00 | 0.00 | 0.00 | 61 | 1011.2 |
| 20260905000749 | 33 | 137 | 3.2 | 4.8 | 0.00 | 0.00 | 0.00 | 60 | 1011.2 |
| 20260905000249 | 33 | 111 | 1.6 | 3.2 | 0.00 | 0.00 | 0.00 | 61 | 1011.3 |
| 20260904235749 | 33 | 178 | 1.6 | 3.2 | 0.00 | 0.00 | 0.00 | 62 | 1011.3 |
| 20260904234748 | 33 | 178 | 0.0 | 1.6 | 0.00 | 0.00 | 0.00 | 60 | 1011.3 |
| 20260904234246 | 33 | 178 | 0.0 | 3.2 | 0.00 | 0.00 | 0.00 | 62 | 1011.2 |
| 20260904233746 | 33 | 205 | 0.0 | 3.2 | 0.00 | 0.00 | 0.00 | 62 | 1011.3 |
| 20260904233246 | 33 | 221 | 1.6 | 3.2 | 0.00 | 0.00 | 0.00 | 58 | 1011.3 |
| 20260904232246 | 34 | 221 | 3.2 | 6.4 | 0.00 | 0.00 | 0.00 | 57 | 1011.4 |
| 20260904231746 | 34 | 221 | 1.6 | 8.0 | 0.00 | 0.00 | 0.00 | 57 | 1011.4 |
| 20260904231245 | 34 | 205 | 4.8 | 12.9 | 0.00 | 0.00 | 0.00 | 56 | 1011.5 |
| 20260904230745 | 35 | 238 | 6.4 | 12.9 | 0.00 | 0.00 | 0.00 | 55 | 1011.5 |
| 20260904230246 | 35 | 255 | 6.4 | 9.7 | 0.00 | 0.00 | 0.00 | 57 | 1011.5 |
| 20260904225745 | 35 | 257 | 4.8 | 9.7 | 0.00 | 0.00 | 0.00 | 56 | 1011.4 |
| 20260904225245 | 35 | 232 | 4.8 | 9.7 | 0.00 | 0.00 | 0.00 | 56 | 1011.4 |
| 20260904224744 | 35 | 245 | 3.2 | 11.3 | 0.00 | 0.00 | 0.00 | 61 | 1011.4 |
| 20260904223744 | 34 | 221 | 6.4 | 11.3 | 0.00 | 0.00 | 0.00 | 57 | 1011.5 |
| 20260904223244 | 34 | 205 | 4.8 | 11.3 | 0.00 | 0.00 | 0.00 | 61 | 1011.4 |
| 20260904222744 | 34 | 225 | 8.0 | 11.3 | 0.00 | 0.00 | 0.00 | 58 | 1011.4 |
| 20260904222243 | 34 | 238 | 4.8 | 14.5 | 0.00 | 0.00 | 0.00 | 57 | 1011.4 |
| 20260904221743 | 35 | 232 | 8.0 | 14.5 | 0.00 | 0.00 | 0.00 | 56 | 1011.4 |
| 20260904221243 | 35 | 207 | 6.4 | 16.1 | 0.00 | 0.00 | 0.00 | 55 | 1011.4 |
| 20260904220745 | 35 | 200 | 6.4 | 16.1 | 0.00 | 0.00 | 0.00 | 54 | 1011.4 |
| 20260904215742 | 35 | 254 | 9.7 | 14.5 | 0.00 | 0.00 | 0.00 | 56 | 1011.3 |
| 20260904215242 | 35 | 168 | 4.8 | 14.5 | 0.00 | 0.00 | 0.00 | 56 | 1011.3 |
| 20260904214742 | 35 | 208 | 6.4 | 16.1 | 0.00 | 0.00 | 0.00 | 54 | 1011.3 |
| 20260904214243 | 35 | 236 | 6.4 | 16.1 | 0.00 | 0.00 | 0.00 | 55 | 1011.4 |
| 20260904213742 | 35 | 212 | 6.4 | 14.5 | 0.00 | 0.00 | 0.00 | 53 | 1011.3 |
| 20260904213242 | 35 | 201 | 6.4 | 14.5 | 0.00 | 0.00 | 0.00 | 55 | 1011.4 |
| 20260904212241 | 35 | 209 | 9.7 | 19.3 | 0.00 | 0.00 | 0.00 | 55 | 1011.3 |
| 20260904211240 | 35 | 221 | 8.0 | 17.7 | 0.00 | 0.00 | 0.00 | 55 | 1011.3 |
| 20260904210239 | 35 | 140 | 6.4 | 16.1 | 0.00 | 0.00 | 0.00 | 53 | 1011.3 |
| 20260904205739 | 35 | 196 | 9.7 | 16.1 | 0.00 | 0.00 | 0.00 | 52 | 1011.4 |
| 20260904205239 | 35 | 146 | 8.0 | 16.1 | 0.00 | 0.00 | 0.00 | 54 | 1011.3 |
| 20260904204739 | 35 | 216 | 6.4 | 12.9 | 0.00 | 0.00 | 0.00 | 53 | 1011.3 |
| 20260904204239 | 35 | 238 | 6.4 | 12.9 | 0.00 | 0.00 | 0.00 | 54 | 1011.2 |
| 20260904203739 | 35 | 196 | 6.4 | 12.9 | 0.00 | 0.00 | 0.00 | 54 | 1011.3 |
| 20260904202738 | 35 | 178 | 4.8 | 14.5 | 0.00 | 0.00 | 0.00 | 55 | 1011.3 |
| 20260904202237 | 35 | 178 | 6.4 | 16.1 | 0.00 | 0.00 | 0.00 | 54 | 1011.4 |
| 20260904201738 | 35 | 212 | 9.7 | 16.1 | 0.00 | 0.00 | 0.00 | 54 | 1011.4 |
| 20260904201239 | 35 | 202 | 8.0 | 14.5 | 0.00 | 0.00 | 0.00 | 56 | 1011.4 |
| 20260904200738 | 34 | 221 | 8.0 | 16.1 | 0.00 | 0.00 | 0.00 | 58 | 1011.4 |
| 20260904200238 | 34 | 193 | 8.0 | 17.7 | 0.00 | 0.00 | 0.00 | 60 | 1011.5 |
| 20260904195737 | 34 | 221 | 8.0 | 17.7 | 0.00 | 0.00 | 0.00 | 55 | 1011.4 |
| 20260904195237 | 34 | 231 | 6.4 | 16.1 | 0.00 | 0.00 | 0.00 | 57 | 1011.5 |
| 20260904194236 | 34 | 144 | 4.8 | 12.9 | 0.00 | 0.00 | 0.00 | 58 | 1011.5 |
| 20260904193736 | 34 | 210 | 6.4 | 17.7 | 0.00 | 0.00 | 0.00 | 58 | 1011.6 |
| 20260904193236 | 34 | 230 | 8.0 | 17.7 | 0.00 | 0.00 | 0.00 | 57 | 1011.6 |
| 20260904192736 | 34 | 182 | 4.8 | 12.9 | 0.00 | 0.00 | 0.00 | 60 | 1011.6 |
| 20260904192236 | 34 | 227 | 4.8 | 14.5 | 0.00 | 0.00 | 0.00 | 61 | 1011.6 |
| 20260904191736 | 33 | 273 | 8.0 | 14.5 | 0.00 | 0.00 | 0.00 | 58 | 1011.6 |
| 20260904191237 | 33 | 238 | 8.0 | 12.9 | 0.00 | 0.00 | 0.00 | 57 | 1011.6 |
| 20260904190736 | 33 | 247 | 4.8 | 16.1 | 0.00 | 0.00 | 0.00 | 59 | 1011.6 |
| 20260904185736 | 33 | 140 | 6.4 | 12.9 | 0.00 | 0.00 | 0.00 | 60 | 1011.6 |
| 20260904185235 | 33 | 231 | 4.8 | 8.0 | 0.00 | 0.00 | 0.00 | 62 | 1011.6 |
| 20260904184735 | 33 | 209 | 3.2 | 9.7 | 0.00 | 0.00 | 0.00 | 65 | 1011.7 |
| 20260904184235 | 33 | 205 | 4.8 | 14.5 | 0.00 | 0.00 | 0.00 | 60 | 1011.8 |
| 20260904183235 | 32 | 228 | 3.2 | 14.5 | 0.00 | 0.00 | 0.00 | 63 | 1011.9 |
| 20260904182735 | 32 | 189 | 8.0 | 14.5 | 0.00 | 0.00 | 0.00 | 68 | 1011.9 |
| 20260904182234 | 32 | 208 | 6.4 | 11.3 | 0.00 | 0.00 | 0.00 | 67 | 1011.8 |
| 20260904181734 | 32 | 173 | 3.2 | 11.3 | 0.00 | 0.00 | 0.00 | 66 | 1011.9 |
| 20260904181235 | 31 | 168 | 6.4 | 17.7 | 0.00 | 0.00 | 0.00 | 65 | 1011.9 |
| 20260904180734 | 31 | 259 | 8.0 | 17.7 | 0.00 | 0.00 | 0.00 | 70 | 1011.8 |
| 20260904180233 | 31 | 250 | 8.0 | 17.7 | 0.00 | 0.00 | 0.00 | 69 | 1011.8 |
| 20260904173732 | 31 | 238 | 3.2 | 9.7 | 0.00 | 0.00 | 0.00 | 69 | 1011.9 |
| 20260904173232 | 31 | 223 | 6.4 | 12.9 | 0.00 | 0.00 | 0.00 | 67 | 1012.0 |
| 20260904172732 | 31 | 280 | 6.4 | 14.5 | 0.00 | 0.00 | 0.00 | 66 | 1012.0 |
| 20260904172231 | 32 | 236 | 8.0 | 17.7 | 0.00 | 0.00 | 0.00 | 65 | 1012.0 |
| 20260904171733 | 32 | 211 | 9.7 | 17.7 | 0.00 | 0.00 | 0.00 | 64 | 1012.0 |
| 20260904171229 | 31 | 243 | 6.4 | 12.9 | 0.00 | 0.00 | 0.00 | 65 | 1012.0 |
| 20260904170730 | 31 | 227 | 8.0 | 17.7 | 0.00 | 0.00 | 0.00 | 64 | 1012.1 |
| 20260904170230 | 31 | 221 | 8.0 | 17.7 | 0.00 | 0.00 | 0.00 | 64 | 1012.0 |
| 20260904165725 | 31 | 221 | 8.0 | 17.7 | 0.00 | 0.00 | 0.00 | 62 | 1011.9 |
| 20260904165224 | 31 | 271 | 9.7 | 17.7 | 0.00 | 0.00 | 0.00 | 66 | 1011.9 |
| 20260904164724 | 31 | 265 | 8.0 | 19.3 | 0.00 | 0.00 | 0.00 | 68 | 1011.9 |
| 20260904164224 | 31 | 208 | 11.3 | 19.3 | 0.00 | 0.00 | 0.00 | 63 | 1012.0 |
| 20260904163721 | 31 | 270 | 6.4 | 16.1 | 0.00 | 0.00 | 0.00 | 68 | 1012.1 |
| 20260904163221 | 31 | 246 | 6.4 | 16.1 | 0.00 | 0.00 | 0.00 | 66 | 1012.0 |
| 20260904162721 | 31 | 225 | 8.0 | 17.7 | 0.00 | 0.00 | 0.00 | 69 | 1012.0 |
| 20260904162220 | 30 | 232 | 8.0 | 17.7 | 0.00 | 0.00 | 0.00 | 67 | 1011.9 |
| 20260904161722 | 30 | 227 | 6.4 | 14.5 | 0.00 | 0.00 | 0.00 | 67 | 1011.9 |
| 20260904161221 | 30 | 232 | 6.4 | 17.7 | 0.00 | 0.00 | 0.00 | 66 | 1012.1 |
| 20260904160721 | 31 | 229 | 9.7 | 17.7 | 0.00 | 0.00 | 0.00 | 62 | 1012.1 |
| 20260904160220 | 31 | 265 | 6.4 | 16.1 | 0.00 | 0.00 | 0.00 | 69 | 1012.1 |
| 20260904155219 | 30 | 265 | 8.0 | 19.3 | 0.00 | 0.00 | 0.00 | 68 | 1012.1 |
| 20260904154720 | 30 | 232 | 11.3 | 20.9 | 0.00 | 0.00 | 0.00 | 66 | 1012.0 |
| 20260904154220 | 30 | 254 | 8.0 | 20.9 | 0.00 | 0.00 | 0.00 | 67 | 1012.0 |
| 20260904153720 | 30 | 261 | 8.0 | 19.3 | 0.00 | 0.00 | 0.00 | 69 | 1012.0 |
| 20260904153219 | 30 | 267 | 11.3 | 22.5 | 0.00 | 0.00 | 0.00 | 69 | 1012.1 |
| 20260904152219 | 30 | 205 | 9.7 | 22.5 | 0.00 | 0.00 | 0.00 | 67 | 1012.0 |
| 20260904151720 | 29 | 230 | 8.0 | 24.1 | 0.00 | 0.00 | 0.00 | 69 | 1012.1 |
| 20260904151220 | 30 | 221 | 9.7 | 24.1 | 0.00 | 0.00 | 0.00 | 67 | 1012.0 |
| 20260904150719 | 29 | 265 | 8.0 | 17.7 | 0.00 | 0.00 | 0.00 | 69 | 1012.1 |
| 20260904150219 | 29 | 215 | 8.0 | 16.1 | 0.00 | 0.00 | 0.00 | 69 | 1012.0 |
| 20260904144719 | 28 | 211 | 9.7 | 19.3 | 0.00 | 0.00 | 0.00 | 69 | 1012.0 |
| 20260904144218 | 28 | 230 | 6.4 | 19.3 | 0.00 | 0.00 | 0.00 | 73 | 1012.0 |
| 20260904143718 | 28 | 219 | 8.0 | 16.1 | 0.00 | 0.00 | 0.00 | 70 | 1012.0 |
| 20260904143218 | 28 | 257 | 6.4 | 14.5 | 0.00 | 0.00 | 0.00 | 71 | 1012.0 |
| 20260904142718 | 28 | 221 | 9.7 | 14.5 | 0.00 | 0.00 | 0.00 | 70 | 1011.9 |
| 20260904141719 | 28 | 184 | 6.4 | 12.9 | 0.00 | 0.00 | 0.00 | 71 | 1012.0 |
| 20260904141217 | 28 | 232 | 4.8 | 12.9 | 0.00 | 0.00 | 0.00 | 72 | 1012.1 |
| 20260904140717 | 28 | 213 | 4.8 | 12.9 | 0.00 | 0.03 | 0.00 | 73 | 1012.1 |
| 20260904140218 | 27 | 202 | 6.4 | 11.3 | 0.00 | 0.03 | 0.00 | 72 | 1012.1 |
| 20260904134717 | 27 | 234 | 6.4 | 12.9 | 0.00 | 0.03 | 0.00 | 74 | 1011.9 |
| 20260904133215 | 27 | 221 | 6.4 | 9.7 | 0.00 | 0.03 | 0.00 | 75 | 1011.8 |
| 20260904132714 | 26 | 178 | 3.2 | 8.0 | 0.00 | 0.03 | 0.00 | 76 | 1011.7 |
| 20260904132214 | 26 | 186 | 3.2 | 8.0 | 0.00 | 0.03 | 0.00 | 76 | 1011.6 |
| 20260904131715 | 26 | 144 | 3.2 | 9.7 | 0.00 | 0.03 | 0.00 | 77 | 1011.6 |
| 20260904131213 | 26 | 196 | 4.8 | 9.7 | 0.00 | 0.03 | 0.00 | 77 | 1011.5 |
| 20260904130713 | 26 | 187 | 3.2 | 8.0 | 0.00 | 0.03 | 0.00 | 78 | 1011.4 |
| 20260904130214 | 26 | 162 | 3.2 | 6.4 | 0.00 | 0.03 | 0.00 | 79 | 1011.4 |
| 20260904125713 | 25 | 153 | 3.2 | 6.4 | 0.00 | 0.03 | 0.00 | 79 | 1011.3 |
| 20260904125213 | 25 | 141 | 3.2 | 6.4 | 0.00 | 0.03 | 0.00 | 79 | 1011.3 |
| 20260904123713 | 25 | 146 | 1.6 | 6.4 | 0.00 | 0.10 | 0.00 | 79 | 1011.2 |
| 20260904122712 | 25 | 196 | 3.2 | 8.0 | 0.00 | 0.15 | 0.00 | 79 | 1011.1 |
| 20260904122212 | 25 | 144 | 1.6 | 9.7 | 0.00 | 0.18 | 0.00 | 79 | 1011.1 |
| 20260904121212 | 25 | 162 | 4.8 | 8.0 | 0.00 | 0.18 | 0.00 | 79 | 1011.0 |
| 20260904120713 | 25 | 178 | 3.2 | 9.7 | 0.00 | 0.18 | 0.00 | 79 | 1011.0 |
| 20260904120213 | 25 | 185 | 3.2 | 9.7 | 0.00 | 0.18 | 0.00 | 79 | 1011.0 |
| 20260904115712 | 25 | 153 | 3.2 | 9.7 | 0.00 | 0.18 | 0.00 | 79 | 1010.9 |
| 20260904115212 | 25 | 205 | 3.2 | 9.7 | 0.00 | 0.18 | 0.00 | 78 | 1011.0 |
| 20260904114712 | 25 | 123 | 4.8 | 9.7 | 0.00 | 0.18 | 0.00 | 78 | 1010.9 |
| 20260904113712 | 25 | 178 | 3.2 | 8.0 | 0.00 | 0.18 | 0.00 | 77 | 1010.9 |
| 20260904113212 | 25 | 178 | 4.8 | 8.0 | 0.00 | 0.18 | 0.00 | 77 | 1010.9 |
| 20260904112712 | 25 | 137 | 3.2 | 8.0 | 0.00 | 0.18 | 0.00 | 77 | 1010.9 |
| 20260904112212 | 25 | 168 | 3.2 | 9.7 | 0.00 | 0.18 | 0.00 | 76 | 1011.0 |
| 20260904111713 | 25 | 190 | 3.2 | 9.7 | 0.00 | 0.18 | 0.00 | 76 | 1010.9 |
| 20260904111212 | 25 | 119 | 3.2 | 8.0 | 0.00 | 0.18 | 0.00 | 76 | 1011.0 |
| 20260904110711 | 25 | 202 | 3.2 | 8.0 | 0.00 | 0.18 | 0.00 | 76 | 1011.0 |
| 20260904110211 | 26 | 173 | 3.2 | 9.7 | 0.00 | 0.18 | 0.00 | 75 | 1010.9 |
| 20260904105211 | 26 | 178 | 3.2 | 12.9 | 0.00 | 0.18 | 0.00 | 74 | 1010.9 |
| 20260904104711 | 26 | 141 | 3.2 | 12.9 | 0.00 | 0.18 | 0.00 | 74 | 1010.8 |
| 20260904104210 | 26 | 196 | 6.4 | 12.9 | 0.00 | 0.18 | 0.00 | 74 | 1010.8 |
| 20260904103710 | 26 | 163 | 4.8 | 11.3 | 0.00 | 0.18 | 0.00 | 74 | 1010.8 |
| 20260904101709 | 26 | 178 | 4.8 | 9.7 | 0.00 | 0.18 | 0.00 | 72 | 1010.8 |
| 20260904101210 | 26 | 190 | 4.8 | 16.1 | 0.00 | 0.18 | 0.00 | 71 | 1010.9 |
| 20260904100710 | 26 | 178 | 8.0 | 16.1 | 0.00 | 0.18 | 0.00 | 71 | 1010.9 |
| 20260904100209 | 26 | 147 | 8.0 | 14.5 | 0.00 | 0.18 | 0.00 | 71 | 1010.8 |
| 20260904095709 | 27 | 166 | 6.4 | 14.5 | 0.00 | 0.18 | 0.00 | 71 | 1010.8 |
| 20260904095209 | 27 | 187 | 6.4 | 16.1 | 0.00 | 0.18 | 0.00 | 71 | 1010.8 |
| 20260904093709 | 27 | 201 | 11.3 | 24.1 | 0.00 | 0.18 | 0.00 | 71 | 1010.6 |
| 20260904093208 | 27 | 171 | 4.8 | 17.7 | 0.00 | 0.18 | 0.00 | 71 | 1010.6 |
| 20260904092708 | 27 | 192 | 8.0 | 20.9 | 0.00 | 0.18 | 0.00 | 69 | 1010.6 |
| 20260904092210 | 27 | 198 | 8.0 | 24.1 | 0.00 | 0.18 | 0.00 | 69 | 1010.5 |
| 20260904091708 | 27 | 209 | 9.7 | 24.1 | 0.00 | 0.18 | 0.00 | 68 | 1010.4 |
| 20260904091209 | 28 | 165 | 8.0 | 22.5 | 0.00 | 0.18 | 0.00 | 68 | 1010.5 |
| 20260904090709 | 28 | 85 | 9.7 | 22.5 | 0.00 | 0.18 | 0.00 | 68 | 1010.4 |
| 20260904090208 | 27 | 226 | 9.7 | 22.5 | 0.00 | 0.18 | 0.00 | 69 | 1010.3 |
| 20260904085708 | 27 | 207 | 12.9 | 22.5 | 0.00 | 0.18 | 0.00 | 70 | 1010.3 |
| 20260904085208 | 27 | 215 | 9.7 | 20.9 | 0.00 | 0.18 | 0.00 | 70 | 1010.2 |
| 20260904084708 | 27 | 198 | 9.7 | 17.7 | 0.00 | 0.18 | 0.00 | 70 | 1010.2 |
| 20260904084208 | 27 | 135 | 9.7 | 20.9 | 0.00 | 0.18 | 0.00 | 69 | 1010.3 |
| 20260904083707 | 27 | 196 | 8.0 | 24.1 | 0.00 | 0.18 | 0.00 | 69 | 1010.3 |
| 20260904083209 | 27 | 221 | 11.3 | 24.1 | 0.00 | 0.18 | 0.00 | 69 | 1010.2 |
| 20260904082707 | 27 | 211 | 11.3 | 20.9 | 0.00 | 0.18 | 0.00 | 68 | 1010.2 |
| 20260904082210 | 27 | 131 | 9.7 | 25.7 | 0.00 | 0.18 | 0.00 | 68 | 1010.2 |
| 20260904081708 | 27 | 178 | 9.7 | 25.7 | 0.00 | 0.18 | 0.00 | 68 | 1010.0 |
| 20260904081208 | 27 | 173 | 9.7 | 24.1 | 0.00 | 0.18 | 0.00 | 69 | 1010.0 |
| 20260904080707 | 27 | 198 | 11.3 | 24.1 | 0.00 | 0.18 | 0.00 | 69 | 1010.0 |
| 20260904080207 | 27 | 196 | 12.9 | 25.7 | 0.00 | 0.18 | 0.00 | 69 | 1010.0 |
| 20260904075707 | 27 | 193 | 12.9 | 25.7 | 0.00 | 0.18 | 0.00 | 68 | 1010.2 |
| 20260904075207 | 27 | 198 | 14.5 | 25.7 | 0.00 | 0.18 | 0.00 | 67 | 1010.2 |
| 20260904074707 | 27 | 169 | 12.9 | 27.4 | 0.00 | 0.18 | 0.00 | 66 | 1010.2 |
| 20260904074207 | 28 | 141 | 12.9 | 27.4 | 0.00 | 0.18 | 0.00 | 65 | 1010.3 |
| 20260904073707 | 28 | 218 | 9.7 | 20.9 | 0.00 | 0.18 | 0.00 | 64 | 1010.3 |
| 20260904073206 | 28 | 238 | 11.3 | 19.3 | 0.00 | 0.18 | 0.00 | 65 | 1010.3 |
| 20260904072706 | 28 | 221 | 8.0 | 19.3 | 0.00 | 0.18 | 0.00 | 64 | 1010.0 |
| 20260904072208 | 28 | 193 | 9.7 | 20.9 | 0.00 | 0.18 | 0.00 | 64 | 1010.2 |
| 20260904071706 | 28 | 205 | 6.4 | 20.9 | 0.00 | 0.18 | 0.00 | 64 | 1010.2 |
| 20260904071206 | 28 | 231 | 9.7 | 22.5 | 0.00 | 0.18 | 0.00 | 64 | 1010.3 |
| 20260904070206 | 28 | 147 | 9.7 | 17.7 | 0.00 | 0.18 | 0.00 | 63 | 1010.2 |
| 20260904065706 | 28 | 221 | 8.0 | 24.1 | 0.00 | 0.18 | 0.00 | 63 | 1010.2 |
| 20260904065206 | 28 | 226 | 6.4 | 24.1 | 0.00 | 0.18 | 0.00 | 63 | 1010.3 |
| 20260904064706 | 28 | 189 | 6.4 | 17.7 | 0.00 | 0.18 | 0.00 | 63 | 1010.3 |
| 20260904064205 | 28 | 196 | 8.0 | 20.9 | 0.00 | 0.18 | 0.00 | 63 | 1010.3 |
| 20260904063705 | 28 | 147 | 8.0 | 20.9 | 0.00 | 0.18 | 0.00 | 63 | 1010.3 |
| 20260904063205 | 28 | 146 | 6.4 | 19.3 | 0.00 | 0.18 | 0.00 | 63 | 1010.2 |
| 20260904062705 | 28 | 202 | 6.4 | 19.3 | 0.00 | 0.18 | 0.00 | 63 | 1010.3 |
| 20260904062206 | 28 | 61 | 8.0 | 16.1 | 0.00 | 0.18 | 0.00 | 63 | 1010.3 |
| 20260904061705 | 28 | 178 | 8.0 | 14.5 | 0.00 | 0.18 | 0.00 | 63 | 1010.2 |
| 20260904061205 | 28 | 147 | 8.0 | 20.9 | 0.00 | 0.18 | 0.00 | 62 | 1010.0 |
| 20260904060705 | 28 | 137 | 9.7 | 20.9 | 0.00 | 0.18 | 0.00 | 62 | 1010.0 |
| 20260904060204 | 28 | 168 | 9.7 | 19.3 | 0.00 | 0.18 | 0.00 | 62 | 1010.2 |
| 20260904055704 | 28 | 218 | 9.7 | 20.9 | 0.00 | 0.18 | 0.00 | 62 | 1010.2 |
| 20260904055204 | 28 | 165 | 11.3 | 20.9 | 0.00 | 0.18 | 0.00 | 62 | 1010.2 |
| 20260904054204 | 28 | 163 | 11.3 | 19.3 | 0.00 | 0.18 | 0.00 | 62 | 1010.0 |
| 20260904053704 | 28 | 173 | 8.0 | 16.1 | 0.00 | 0.18 | 0.00 | 62 | 1010.0 |
| 20260904052703 | 28 | 211 | 8.0 | 20.9 | 0.00 | 0.18 | 0.00 | 62 | 1009.9 |
| 20260904052204 | 28 | 175 | 6.4 | 20.9 | 0.00 | 0.18 | 0.00 | 63 | 1009.8 |
| 20260904051203 | 28 | 135 | 6.4 | 19.3 | 0.00 | 0.18 | 0.00 | 63 | 1009.8 |
| 20260904050700 | 28 | 178 | 6.4 | 25.7 | 0.00 | 0.18 | 0.00 | 63 | 1009.8 |
| 20260904050200 | 28 | 178 | 9.7 | 25.7 | 0.00 | 0.18 | 0.00 | 62 | 1009.8 |
| 20260904045701 | 28 | 183 | 6.4 | 20.9 | 0.00 | 0.18 | 0.18 | 62 | 1009.8 |
| 20260904044700 | 28 | 182 | 8.0 | 14.5 | 0.00 | 0.18 | 0.18 | 62 | 1009.7 |
| 20260904043700 | 29 | 123 | 9.7 | 17.7 | 0.00 | 0.18 | 0.18 | 63 | 1009.7 |
| 20260904043200 | 29 | 225 | 8.0 | 19.3 | 0.00 | 0.18 | 0.18 | 62 | 1009.7 |
| 20260904042200 | 29 | 170 | 8.0 | 19.3 | 0.00 | 0.18 | 0.18 | 62 | 1009.7 |
| 20260904041700 | 29 | 128 | 6.4 | 19.3 | 0.00 | 0.18 | 0.18 | 62 | 1009.7 |
| 20260904040659 | 29 | 132 | 8.0 | 16.1 | 0.00 | 0.18 | 0.18 | 62 | 1009.8 |
| 20260904040159 | 29 | 153 | 8.0 | 20.9 | 0.00 | 0.18 | 0.18 | 62 | 1009.8 |
| 20260904034659 | 29 | 185 | 6.4 | 22.5 | 0.00 | 0.18 | 0.18 | 62 | 1009.8 |
| 20260904033157 | 30 | 221 | 8.0 | 16.1 | 0.00 | 0.18 | 0.18 | 62 | 1009.8 |
| 20260904032657 | 30 | 153 | 8.0 | 17.7 | 0.00 | 0.18 | 0.18 | 62 | 1009.7 |
| 20260904031155 | 30 | 144 | 8.0 | 17.7 | 0.00 | 0.18 | 0.18 | 61 | 1009.7 |
| 20260904030156 | 30 | 158 | 9.7 | 20.9 | 0.00 | 0.18 | 0.18 | 61 | 1009.6 |
| 20260904025655 | 30 | 173 | 6.4 | 19.3 | 0.00 | 0.18 | 0.18 | 62 | 1009.6 |
| 20260904024655 | 30 | 123 | 6.4 | 14.5 | 0.00 | 0.18 | 0.18 | 62 | 1009.6 |
| 20260904024153 | 30 | 178 | 6.4 | 16.1 | 0.00 | 0.18 | 0.18 | 62 | 1009.6 |
| 20260904023153 | 30 | 147 | 6.4 | 19.3 | 0.00 | 0.18 | 0.18 | 61 | 1009.5 |
| 20260904022653 | 30 | 178 | 6.4 | 19.3 | 0.00 | 0.18 | 0.18 | 61 | 1009.5 |
| 20260904022155 | 30 | 187 | 8.0 | 17.7 | 0.00 | 0.18 | 0.18 | 61 | 1009.5 |
| 20260904021653 | 30 | 124 | 8.0 | 16.1 | 0.00 | 0.18 | 0.18 | 61 | 1009.5 |
| 20260904021153 | 30 | 141 | 8.0 | 16.1 | 0.00 | 0.18 | 0.18 | 61 | 1009.4 |
| 20260904020653 | 30 | 177 | 6.4 | 16.1 | 0.00 | 0.18 | 0.18 | 61 | 1009.3 |
| 20260904015653 | 31 | 177 | 4.8 | 16.1 | 0.00 | 0.18 | 0.18 | 60 | 1009.4 |
| 20260904014652 | 31 | 148 | 4.8 | 17.7 | 0.00 | 0.18 | 0.18 | 59 | 1009.3 |
| 20260904014152 | 31 | 188 | 6.4 | 17.7 | 0.00 | 0.18 | 0.18 | 59 | 1009.1 |
| 20260904013651 | 31 | 142 | 6.4 | 14.5 | 0.00 | 0.18 | 0.18 | 59 | 1009.1 |
| 20260904013152 | 31 | 165 | 6.4 | 16.1 | 0.00 | 0.18 | 0.18 | 59 | 1009.0 |
| 20260904012152 | 31 | 178 | 4.8 | 19.3 | 0.00 | 0.18 | 0.18 | 58 | 1009.0 |
| 20260904011651 | 31 | 153 | 4.8 | 19.3 | 0.00 | 0.18 | 0.18 | 58 | 1008.9 |
| 20260904011151 | 31 | 144 | 6.4 | 22.5 | 0.00 | 0.18 | 0.18 | 58 | 1008.8 |
| 20260904010650 | 32 | 131 | 8.0 | 22.5 | 0.00 | 0.18 | 0.18 | 58 | 1008.7 |
| 20260904010150 | 32 | 128 | 6.4 | 19.3 | 0.00 | 0.18 | 0.18 | 58 | 1008.7 |
| 20260904005650 | 32 | 178 | 9.7 | 17.7 | 0.00 | 0.18 | 0.18 | 58 | 1008.7 |
| 20260904005151 | 32 | 146 | 8.0 | 17.7 | 0.00 | 0.18 | 0.18 | 58 | 1008.7 |
| 20260904004150 | 32 | 140 | 4.8 | 14.5 | 0.00 | 0.18 | 0.18 | 57 | 1008.5 |
| 20260904003650 | 32 | 210 | 4.8 | 19.3 | 0.00 | 0.18 | 0.18 | 56 | 1008.4 |
| 20260904003149 | 32 | 138 | 6.4 | 19.3 | 0.00 | 0.18 | 0.18 | 56 | 1008.4 |
| 20260904002650 | 33 | 212 | 6.4 | 16.1 | 0.00 | 0.18 | 0.18 | 55 | 1008.4 |